Location: Cortada de Papelón
(10.0378°N, 66.9528°W)
Time: 15:28:54
(UTC+00:00)

NOAA 6 - Pass Details

Date: 13 June 2024
Orbit: 769 x 784 km, 98.6° (Epoch: 21 July)

Event Time Altitude Azimuth Distance (km) Brightness Sun altitude
Rises 23:17:46 0° 170° (S) 3,244 6.9 -7.2°
Reaches altitude 10° 23:20:05 10° 172° (S) 2,319 6.2 -7.7°
Maximum altitude 23:25:11 77° 258° (WSW) 798 4.2 -8.9°
Drops below altitude 10° 23:30:19 10° 344° (NNW) 2,327 7.1 -10.0°
Sets 23:32:38 0° 346° (NNW) 3,256 7.9 -10.5°
